Home   Weather   Kaunas   Past weeks

Flag for Lithuania Past Weather in Kaunas, Lithuania — Yesterday and Last 2 Weeks

Now
32 °F

Light rain. Overcast.


Feels Like: 26 °F
Forecast: 27 / 31 °F
Wind: 6 mph from North

Location: Kaunas

Current Time: Dec 10, 2016 at 6:59:07 pm

Latest Report: Dec 10, 2016 at 6:20 pm


Visibility: N/A

Pressure: 29.77 "Hg

Humidity: 93%

Dew Point: 30 °F

Location of KaunasLocation

Past Weather in Kaunas — Graph

°F

Kaunas Temperature Yesterday

Maximum temperature yesterday: 46 °F (at 12:20 am)
Minimum temperature yesterday: 41 °F (at 10:20 pm)
Average temperature yesterday: 44 °F

High & Low Weather Summary for the Past Weeks

 TemperatureHumidityPressure
High46 °F (Dec 8, 3:50 pm)100% (Nov 30, 9:20 am)30.54 "Hg (Nov 30, 9:20 am)
Low12 °F (Nov 29, 7:20 pm)59% (Dec 3, 1:50 pm)29.42 "Hg (Nov 26, 10:50 pm)
Average33 °F85%29.87 "Hg
* Reported Nov 25 5:20 pm — Dec 10 5:50 pm, Kaunas, Weather by CustomWeather, © 2016

Note: Actual official high and low records may vary slightly from our data, if they occured in-between our weather recording intervals... More about our weather records

Advertising

Kaunas Weather History for the Previous 24 Hours

Scroll right to see more
 ConditionsComfort  
Time TempWeatherWind HumidityBarometerVisibility
5:50 pm
Sat, Dec 10
32 °FLight rain. Mostly cloudy.6 mph93%29.74 "HgN/A
5:20 pm32 °FLight rain. Mostly cloudy.6 mph100%29.74 "Hg6 mi
4:50 pm34 °FLight rain. Mostly cloudy.6 mph93%29.74 "Hg6 mi
4:20 pm34 °FLight rain. Fog.5 mph93%29.71 "Hg3 mi
3:50 pm34 °FLight rain. Mostly cloudy.7 mph93%29.71 "Hg6 mi
3:20 pm34 °FLight rain. Mostly cloudy.9 mph93%29.71 "HgN/A
2:50 pm36 °FLight rain. Mostly cloudy.10 mph93%29.71 "HgN/A
2:20 pm37 °FLight rain. Low clouds.8 mph93%29.71 "HgN/A
1:50 pm39 °FLight rain. Cloudy.5 mph93%29.68 "HgN/A
1:20 pm41 °FLight rain. Mostly cloudy.2 mph87%29.71 "HgN/A
12:50 pm41 °FLight rain. More clouds than sun.3 mph93%29.71 "HgN/A
12:20 pm41 °FLight rain. Mostly cloudy.5 mph93%29.71 "HgN/A
11:50 am43 °FLight rain. Mostly cloudy.8 mph87%29.71 "HgN/A
11:20 am43 °FLight rain. Mostly cloudy.10 mph87%29.71 "Hg6 mi
10:50 am43 °FLight rain. Mostly cloudy.10 mph93%29.71 "Hg6 mi
10:20 am43 °FLight rain. Mostly cloudy.6 mph93%29.71 "Hg5 mi
9:50 am43 °FLight rain. Mostly cloudy.8 mph93%29.74 "Hg6 mi
9:20 am43 °FLight rain. Low clouds.6 mph87%29.74 "Hg6 mi
8:50 am43 °FLight rain. Overcast.8 mph87%29.74 "HgN/A
8:20 am43 °FLight rain. Mostly cloudy.8 mph87%29.74 "HgN/A
7:50 am43 °FOvercast.8 mph87%29.74 "HgN/A
7:20 am43 °FMostly cloudy.9 mph87%29.74 "HgN/A
6:50 am43 °FMostly cloudy.8 mph87%29.77 "HgN/A
6:20 am43 °FOvercast.7 mph87%29.77 "HgN/A
5:50 am43 °FOvercast.7 mph87%29.80 "HgN/A
5:20 am43 °FOvercast.7 mph87%29.80 "HgN/A
4:50 am43 °FOvercast.10 mph81%29.80 "HgN/A
4:20 am43 °FOvercast.10 mph81%29.80 "HgN/A
3:50 am43 °FOvercast.12 mph81%29.80 "HgN/A
3:20 am43 °FOvercast.13 mph81%29.83 "HgN/A
2:50 am43 °FOvercast.14 mph81%29.80 "HgN/A
2:20 am41 °FLow clouds.14 mph87%29.80 "HgN/A
1:50 am41 °FLow clouds.13 mph87%29.80 "HgN/A
1:20 am43 °FOvercast.14 mph87%29.80 "HgN/A
12:50 am41 °FOvercast.15 mph87%29.80 "HgN/A
12:20 am41 °FLow clouds.13 mph87%29.80 "HgN/A
11:50 pm
Fri, Dec 9
41 °FOvercast.10 mph87%29.80 "HgN/A
11:20 pm41 °FOvercast.10 mph87%29.80 "HgN/A
10:50 pm41 °FPassing clouds.10 mph87%29.80 "HgN/A
10:20 pm41 °FPassing clouds.12 mph87%29.80 "HgN/A
9:50 pm43 °FPassing clouds.10 mph81%29.77 "HgN/A
9:20 pm43 °FOvercast.12 mph81%29.77 "HgN/A
8:50 pm45 °FOvercast.13 mph81%29.77 "HgN/A
8:20 pm45 °FMostly cloudy.10 mph81%29.77 "HgN/A
7:50 pm45 °FOvercast.12 mph87%29.74 "HgN/A
7:20 pm45 °FMostly cloudy.13 mph87%29.71 "HgN/A
6:50 pm45 °FMostly cloudy.14 mph87%29.71 "HgN/A
6:20 pm45 °FLow clouds.12 mph87%29.71 "HgN/A
Weather by CustomWeather, © 2016

See weather overviewHow to use our weather pages